Simultaneous Nadir Overpasses (SNOs) Predictions

Prediction of SNOs between GOES-15 and NOAA-20 Satellite Orbit:

Table of predicted SNOs for the next 14.0 days since TLE Epoch: 7/2/2022
Index Date Time (GOES-15) GOES-15 Lat,Lon NOAA-20 Lat,Lon Distance(km) Time Diff (sec)
1 07/02/2022 09:55:50 -0.13,-128.48 -0.36,-127.37 125.59 80
2 07/03/2022 22:15:07 0.16,-128.47 -0.78,-132.69 480.39 80
3 07/04/2022 21:59:01 0.15,-128.47 0.22,-128.15 36.36 80
4 07/07/2022 09:59:23 -0.16,-128.46 -0.08,-128.89 48.54 80
5 07/08/2022 09:43:17 -0.15,-128.45 -1.08,-124.36 467.41 80
6 07/09/2022 22:02:33 0.18,-128.43 -0.11,-129.66 140.20 80
7 07/10/2022 21:46:27 0.17,-128.42 0.89,-125.12 375.40 80
8 07/12/2022 10:05:35 -0.21,-128.40 0.25,-130.40 227.51 80
9 07/13/2022 09:49:29 -0.19,-128.39 -0.75,-125.86 287.36 80
10 07/14/2022 22:08:44 0.23,-128.35 -0.43,-131.16 322.00 80
11 07/15/2022 21:52:39 0.21,-128.33 0.58,-126.63 193.14 80
